Weather History for KBFD - October, 2012

Change the Weather History Date:

Sunday, October 7, 2012

  Actual Average Record
Temperature  
Mean Temperature 40 °F 49 °F  
Max Temperature 48 °F 60 °F 78 °F (1963)
Min Temperature 35 °F 38 °F 20 °F (1964)
Degree Days  
Heating Degree Days 24 12  
Month to date heating degree days 75  
Since 1 July heating degree days 492  
Cooling Degree Days 0 0  
Month to date cooling degree days 0  
Year to date cooling degree days 192  
Moisture  
Dew Point 34 °F    
Average Humidity 79    
Maximum Humidity 92    
Minimum Humidity 56    
Precipitation  
Precipitation 0.18 in 0.11 in 1.46 in (2005)
Month to date precipitation 0.84  
Year to date precipitation 34.71  
Sea Level Pressure  
Sea Level Pressure 30.07 in    
Wind  
Wind Speed 3 mph (SW)    
Max Wind Speed 12 mph    
Max Gust Speed 17 mph    
Visibility 9 miles    
Events Rain    
T = Trace of Precipitation, MM = Missing Value Source: NWS Daily Summary

Daily Weather History Graph

Daily Weather History Graph

Search for Another Location

Airport or City:

Trip Planner

Search our weather history database for the weather conditions in past years. The results will help you decide how hot, cold, wet, or windy it might be!

Date:

Astronomy

Oct. 07, 2012 Rise Set
Actual Time 7:18 AM EDT 6:45 PM EDT
Civil Twilight 6:50 AM EDT 7:13 PM EDT
Nautical Twilight 6:18 AM EDT 7:45 PM EDT
Astronomical Twilight 5:45 AM EDT 8:17 PM EDT
Moon 11:51 PM EDT (10/7) 1:58 PM EDT (10/7)
Length of Visible Light 12h 22m
Length of Day
11h 26m
Waning Gibbous, 56% of the Moon is Illuminated
Oct 7
Waning Gibbous
Oct 8
Last Quarter
Oct 15
New
Oct 21
First Quarter
Oct 29
Full

Hourly Weather History & Observations

Time (EDT) Temp. Windchill Dew Point Humidity Pressure Visibility Wind Dir Wind Speed Gust Speed Precip Events Conditions
12:53 AM 41.0 °F - 35.1 °F 79% 30.06 in 10.0 mi Calm Calm - N/A   Mostly Cloudy
1:53 AM 42.1 °F 40.2 °F 35.1 °F 76% 30.06 in 10.0 mi SW 3.5 mph - N/A   Overcast
2:53 AM 42.1 °F - 35.1 °F 76% 30.06 in 10.0 mi Calm Calm - N/A   Overcast
3:53 AM 41.0 °F 39.0 °F 35.1 °F 79% 30.05 in 10.0 mi SSW 3.5 mph - N/A   Mostly Cloudy
4:53 AM 41.0 °F 39.0 °F 35.1 °F 79% 30.03 in 10.0 mi North 3.5 mph - N/A   Mostly Cloudy
5:53 AM 41.0 °F - 35.1 °F 79% 30.03 in 10.0 mi Calm Calm - N/A   Mostly Cloudy
6:53 AM 41.0 °F - 35.1 °F 79% 30.04 in 10.0 mi Calm Calm - N/A   Overcast
7:53 AM 41.0 °F - 35.1 °F 79% 30.06 in 10.0 mi Calm Calm - N/A   Overcast
8:53 AM 41.0 °F 39.0 °F 35.1 °F 79% 30.08 in 10.0 mi SSW 3.5 mph - N/A   Overcast
9:53 AM 43.0 °F 41.3 °F 36.0 °F 76% 30.07 in 10.0 mi SSW 3.5 mph - N/A   Overcast
10:53 AM 46.0 °F 41.9 °F 34.0 °F 63% 30.06 in 10.0 mi SW 8.1 mph - N/A   Mostly Cloudy
11:28 AM 46.0 °F 41.4 °F 34.0 °F 63% 30.05 in 10.0 mi South 9.2 mph - N/A   Overcast
11:37 AM 46.0 °F 41.4 °F 33.1 °F 61% 30.05 in 10.0 mi South 9.2 mph - N/A   Overcast
11:53 AM 46.0 °F 43.1 °F 33.1 °F 61% 30.06 in 10.0 mi SW 5.8 mph - N/A   Overcast
12:53 PM 46.9 °F - 32.0 °F 56% 30.04 in 10.0 mi SSW 11.5 mph 16.1 mph N/A   Overcast
1:53 PM 46.0 °F 43.9 °F 32.0 °F 58% 30.04 in 10.0 mi WSW 4.6 mph - N/A   Overcast
2:53 PM 44.1 °F - 33.1 °F 65% 30.04 in 6.0 mi North - - 0.00 in Rain Light Rain
3:53 PM 41.0 °F 38.0 °F 36.0 °F 82% 30.04 in 6.0 mi SW 4.6 mph - 0.06 in Rain Light Rain
4:53 PM 41.0 °F 35.2 °F 36.0 °F 82% 30.05 in 9.0 mi SW 9.2 mph - 0.03 in Rain Light Rain
5:04 PM 39.9 °F 33.4 °F 36.0 °F 86% 30.02 in 7.0 mi SW 10.4 mph - 0.01 in Rain Light Rain
5:38 PM 39.9 °F - 36.0 °F 86% 30.03 in 5.0 mi North - - 0.03 in Rain Light Rain
5:53 PM 39.9 °F 35.8 °F 35.1 °F 83% 30.07 in 4.0 mi West 5.8 mph 17.3 mph 0.04 in Rain Light Rain
6:53 PM 37.0 °F 31.0 °F 34.0 °F 89% 30.10 in 10.0 mi NW 8.1 mph - 0.05 in Rain Light Rain
7:53 PM 37.9 °F 32.7 °F 34.0 °F 86% 30.12 in 10.0 mi West 6.9 mph - 0.00 in   Overcast
8:49 PM 37.4 °F - 33.8 °F 87% 30.09 in 10.0 mi Calm Calm - N/A   Mostly Cloudy
8:53 PM 37.9 °F 34.4 °F 34.0 °F 86% 30.12 in 10.0 mi West 4.6 mph - N/A   Mostly Cloudy
9:04 PM 37.0 °F - 33.1 °F 86% 30.09 in 10.0 mi Calm Calm - N/A   Scattered Clouds
9:12 PM 36.0 °F 33.3 °F 33.1 °F 89% 30.09 in 10.0 mi North 3.5 mph - N/A   Mostly Cloudy
9:53 PM 36.0 °F - 33.1 °F 89% 30.14 in 10.0 mi Calm Calm - N/A   Mostly Cloudy
10:03 PM 36.0 °F - 33.1 °F 89% 30.10 in 10.0 mi Calm Calm - N/A   Scattered Clouds
10:14 PM 35.1 °F - 33.1 °F 92% 30.10 in 10.0 mi Calm Calm - N/A   Mostly Cloudy
10:53 PM 37.0 °F 34.5 °F 34.0 °F 89% 30.15 in 10.0 mi WSW 3.5 mph - N/A   Overcast
11:19 PM 37.0 °F 33.3 °F 34.0 °F 89% 30.12 in 10.0 mi Variable 4.6 mph - N/A   Overcast
11:53 PM 37.0 °F 31.6 °F 34.0 °F 89% 30.15 in 10.0 mi SW 6.9 mph - N/A   Overcast